• In Kazakhstan
  • List of Countries
  • For 7 days
  • Water Temperature
  • Weather Map
  • News
  • Weather Widgets
  • user-avatar
    Login

    Hourly Weather Sarafovo

    Today, 14 November, Thursday

    Time Temperature Precipitation Wind Pressure Humidity
    00:00 +19°C° 0 mm 1 mps 755 mmHg 67%
    01:00 +18°C° 0 mm 1 mps 755 mmHg 69%
    02:00 +17°C° 0 mm 2 mps 755 mmHg 72%
    03:00 +17°C° 0 mm 2 mps 755 mmHg 74%
    04:00 +17°C° 0 mm 2 mps 754 mmHg 77%
    05:00 +16°C° 0 mm 2 mps 754 mmHg 79%
    06:00 +16°C° 0 mm 2 mps 754 mmHg 82%
    07:00 +16°C° 0 mm 2 mps 754 mmHg 84%
    08:00 +16°C° 0 mm 2 mps 755 mmHg 85%
    09:00 +17°C° 0 mm 2 mps 755 mmHg 83%
    10:00 +18°C° 0 mm 2 mps 754 mmHg 80%
    11:00 +18°C° 0 mm 2 mps 754 mmHg 78%
    12:00 +19°C° 0 mm 2 mps 754 mmHg 74%
    13:00 +20°C° 0 mm 2 mps 754 mmHg 71%
    14:00 +20°C° 0 mm 2 mps 754 mmHg 67%
    15:00 +19°C° 0 mm 2 mps 754 mmHg 71%
    16:00 +19°C° 0 mm 3 mps 754 mmHg 75%
    17:00 +18°C° 0 mm 3 mps 754 mmHg 79%
    18:00 +18°C° 0.4 mm 3 mps 754 mmHg 79%
    19:00 +17°C° 0.4 mm 3 mps 754 mmHg 80%
    20:00 +17°C° 0.4 mm 3 mps 755 mmHg 80%
    21:00 +17°C° 0 mm 3 mps 755 mmHg 81%
    22:00 +15°C° 0 mm 4 mps 755 mmHg 82%
    23:00 +15°C° 0 mm 4 mps 755 mmHg 82%

    Tomorrow, 15 November, Friday

    Time Temperature Precipitation Wind Pressure Humidity
    00:00 +16°C° 0 mm 3 mps 755 mmHg 84%
    01:00 +14°C° 0 mm 3 mps 756 mmHg 87%
    02:00 +14°C° 0 mm 3 mps 756 mmHg 89%
    03:00 +14°C° 0 mm 2 mps 756 mmHg 90%
    04:00 +14°C° 0 mm 2 mps 756 mmHg 91%
    05:00 +14°C° 0 mm 1 mps 757 mmHg 92%
    06:00 +14°C° 0 mm 1 mps 757 mmHg 92%
    07:00 +14°C° 0 mm 1 mps 758 mmHg 92%
    08:00 +14°C° 0 mm 1 mps 758 mmHg 91%
    09:00 +16°C° 0 mm 1 mps 758 mmHg 83%
    10:00 +17°C° 0 mm 2 mps 759 mmHg 76%
    11:00 +19°C° 0 mm 2 mps 759 mmHg 68%
    12:00 +19°C° 0 mm 2 mps 759 mmHg 63%
    13:00 +20°C° 0 mm 2 mps 759 mmHg 59%
    14:00 +21°C° 0 mm 2 mps 759 mmHg 55%
    15:00 +20°C° 0 mm 2 mps 759 mmHg 61%
    16:00 +19°C° 0 mm 2 mps 760 mmHg 66%
    17:00 +18°C° 0 mm 2 mps 760 mmHg 72%
    18:00 +17°C° 0 mm 2 mps 760 mmHg 75%
    19:00 +16°C° 0 mm 2 mps 761 mmHg 78%
    20:00 +16°C° 0 mm 2 mps 761 mmHg 81%
    21:00 +16°C° 0 mm 1 mps 761 mmHg 82%
    22:00 +15°C° 0 mm 1 mps 761 mmHg 83%
    23:00 +15°C° 0 mm 1 mps 762 mmHg 83%

    Day after tomorrow, 16 November, Saturday

    Time Temperature Precipitation Wind Pressure Humidity
    00:00 +15°C° 0 mm 1 mps 762 mmHg 83%
    01:00 +15°C° 0 mm 1 mps 762 mmHg 83%
    02:00 +14°C° 0 mm 0 mps 762 mmHg 82%
    03:00 +13°C° 0 mm 0 mps 762 mmHg 83%
    04:00 +13°C° 0 mm 0 mps 762 mmHg 83%
    05:00 +13°C° 0 mm 0 mps 762 mmHg 83%
    06:00 +13°C° 0 mm 0 mps 762 mmHg 81%
    07:00 +13°C° 0 mm 0 mps 763 mmHg 80%
    08:00 +13°C° 0 mm 0 mps 763 mmHg 79%
    09:00 +15°C° 0 mm 0 mps 763 mmHg 72%
    10:00 +19°C° 0 mm 1 mps 763 mmHg 65%
    11:00 +21°C° 0 mm 1 mps 763 mmHg 58%
    12:00 +21°C° 0 mm 1 mps 763 mmHg 57%
    13:00 +20°C° 0 mm 2 mps 763 mmHg 56%
    14:00 +21°C° 0 mm 3 mps 763 mmHg 55%
    15:00 +20°C° 0 mm 3 mps 762 mmHg 65%
    16:00 +18°C° 0 mm 3 mps 762 mmHg 74%
    17:00 +17°C° 0 mm 3 mps 762 mmHg 83%
    18:00 +16°C° 0 mm 2 mps 762 mmHg 86%
    19:00 +16°C° 0 mm 2 mps 763 mmHg 89%
    20:00 +15°C° 0 mm 2 mps 763 mmHg 93%
    21:00 +15°C° 0 mm 2 mps 763 mmHg 93%
    22:00 +15°C° 0 mm 2 mps 763 mmHg 93%
    23:00 +15°C° 0 mm 2 mps 763 mmHg 94%

    17 November, Sunday

    Time Temperature Precipitation Wind Pressure Humidity
    00:00 +15°C° 0 mm 2 mps 763 mmHg 93%
    01:00 +14°C° 0 mm 2 mps 762 mmHg 93%
    02:00 +14°C° 0 mm 2 mps 762 mmHg 93%
    03:00 +14°C° 0 mm 2 mps 762 mmHg 93%
    04:00 +14°C° 0 mm 2 mps 762 mmHg 94%
    05:00 +14°C° 0 mm 2 mps 761 mmHg 94%
    06:00 +14°C° 0 mm 2 mps 762 mmHg 94%
    07:00 +13°C° 0 mm 3 mps 762 mmHg 94%
    08:00 +14°C° 0 mm 3 mps 762 mmHg 94%
    09:00 +16°C° 0 mm 3 mps 762 mmHg 88%
    10:00 +17°C° 0 mm 3 mps 762 mmHg 81%
    11:00 +18°C° 0 mm 4 mps 762 mmHg 74%
    12:00 +18°C° 0 mm 4 mps 761 mmHg 72%
    13:00 +18°C° 0 mm 4 mps 761 mmHg 70%
    14:00 +19°C° 0 mm 4 mps 761 mmHg 68%
    15:00 +18°C° 0 mm 4 mps 760 mmHg 74%
    16:00 +17°C° 0 mm 3 mps 760 mmHg 80%
    17:00 +16°C° 0 mm 2 mps 760 mmHg 86%
    18:00 +15°C° 0 mm 2 mps 760 mmHg 89%
    19:00 +15°C° 0 mm 2 mps 760 mmHg 92%
    20:00 +14°C° 0 mm 2 mps 760 mmHg 94%
    21:00 +14°C° 0 mm 2 mps 760 mmHg 95%
    22:00 +14°C° 0 mm 2 mps 760 mmHg 95%
    23:00 +15°C° 0 mm 2 mps 760 mmHg 95%

    18 November, Monday

    Time Temperature Precipitation Wind Pressure Humidity
    00:00 +15°C° 0 mm 1 mps 760 mmHg 94%
    01:00 +15°C° 0 mm 1 mps 759 mmHg 93%
    02:00 +15°C° 0 mm 1 mps 759 mmHg 92%
    03:00 +14°C° 0 mm 1 mps 759 mmHg 93%
    04:00 +14°C° 0 mm 1 mps 759 mmHg 94%
    05:00 +14°C° 0 mm 1 mps 759 mmHg 94%
    06:00 +14°C° 0 mm 1 mps 759 mmHg 93%
    07:00 +14°C° 0 mm 1 mps 759 mmHg 92%
    08:00 +14°C° 0 mm 1 mps 759 mmHg 91%
    09:00 +16°C° 0 mm 2 mps 759 mmHg 82%
    10:00 +18°C° 0 mm 2 mps 760 mmHg 72%
    11:00 +19°C° 0 mm 3 mps 760 mmHg 63%
    12:00 +20°C° 0 mm 3 mps 760 mmHg 60%
    13:00 +21°C° 0 mm 4 mps 759 mmHg 57%
    14:00 +21°C° 0 mm 4 mps 759 mmHg 54%
    15:00 +20°C° 0 mm 3 mps 759 mmHg 58%
    16:00 +19°C° 0 mm 3 mps 760 mmHg 63%
    17:00 +18°C° 0 mm 2 mps 760 mmHg 67%
    18:00 +18°C° 0 mm 2 mps 760 mmHg 71%
    19:00 +17°C° 0 mm 2 mps 760 mmHg 74%
    20:00 +17°C° 0 mm 2 mps 761 mmHg 77%
    21:00 +16°C° 0 mm 2 mps 761 mmHg 80%
    22:00 +16°C° 0 mm 2 mps 761 mmHg 83%
    23:00 +15°C° 0 mm 1 mps 761 mmHg 86%

    19 November, Tuesday

    Time Temperature Precipitation Wind Pressure Humidity
    00:00 +15°C° 0 mm 1 mps 761 mmHg 87%
    01:00 +15°C° 0 mm 1 mps 761 mmHg 88%
    02:00 +15°C° 0 mm 1 mps 761 mmHg 90%
    03:00 +15°C° 0 mm 1 mps 761 mmHg 90%
    04:00 +15°C° 0 mm 1 mps 761 mmHg 91%
    05:00 +15°C° 0 mm 1 mps 761 mmHg 91%
    06:00 +15°C° 0 mm 1 mps 761 mmHg 91%
    07:00 +15°C° 0 mm 1 mps 761 mmHg 90%
    08:00 +15°C° 0 mm 1 mps 762 mmHg 89%
    09:00 +17°C° 0 mm 2 mps 762 mmHg 81%
    10:00 +18°C° 0 mm 2 mps 762 mmHg 73%
    11:00 +20°C° 0 mm 2 mps 762 mmHg 65%
    12:00 +21°C° 0 mm 3 mps 761 mmHg 61%
    13:00 +21°C° 0 mm 3 mps 761 mmHg 57%
    14:00 +22°C° 0 mm 3 mps 761 mmHg 54%
    15:00 +21°C° 0 mm 3 mps 761 mmHg 59%
    16:00 +20°C° 0 mm 2 mps 760 mmHg 64%
    17:00 +18°C° 0 mm 2 mps 760 mmHg 69%
    18:00 +18°C° 0 mm 2 mps 761 mmHg 71%
    19:00 +17°C° 0 mm 2 mps 761 mmHg 73%
    20:00 +17°C° 0 mm 2 mps 761 mmHg 75%
    21:00 +17°C° 0 mm 2 mps 761 mmHg 76%
    22:00 +16°C° 0 mm 1 mps 761 mmHg 77%
    23:00 +16°C° 0 mm 1 mps 761 mmHg 78%
    Show more